Other Public Products
Issued by NWS Grand Forks, ND

Home | Current Version | Previous Version | Text Only | Print | Product List | Glossary Off
Versions: 1 2 3 4 5 6 7 8 9 10 11 12 13 14 15 16 17 18 19 20 21 22 23 24 25 26 27 28 29 30 31 32 33 34 35 36 37 38 39 40 41 42 43 44 45 46 47 48 49 50

000
FPUS83 KFGF 011310
OPUFGF
PRAIRIE TO PINES WEATHER ROUNDUP
NATIONAL WEATHER SERVICE EASTERN NORTH DAKOTA/GRAND FORKS ND
700 AM CST SUN MAR 01 2015

 **SATELLITE DATA USED TO AUGMENT SKY COVER AT AUTOMATED STATIONS**
 *****  WEATHER ACROSS EASTERN NORTH DAKOTA  *****

CITY           SKY/WX    TMP DP  RH WIND       PRES   REMARKS
GRAND FORKS    MOCLDY     2  -4  76 SW6       30.15S WCI  -9
GRAND FORKS AF NOT AVBL
GRAND CITY NWS   N/A      1 N/A N/A W6          N/A  WCI -10
BUXTON         NOT AVBL
DEVILS LAKE    MOCLDY     3  -6  66 W10       30.11R WCI -12
FARGO          CLEAR      0  -6  76 SW7       30.20F WCI -13
WAHPETON ARPT  SUNNY     -4  -8  84 SW3       30.23S
$$

 *****  WEATHER ACROSS CENTRAL AND WESTERN NORTH DAKOTA  *****

CITY           SKY/WX    TMP DP  RH WIND       PRES   REMARKS
JAMESTOWN      PTCLDY     7   0  73 W13       30.14S WCI  -9
BISMARCK       PTCLDY     7   2  80 NW5       30.18S WCI  -2
MINOT          CLEAR      9   3  77 W17       30.12R WCI  -9
MINOT AFB      CLEAR      5   3  89 W13       30.12R WCI -11
GARRISON         N/A      7   3  84 W13       30.13R WCI  -9
WILLISTON      CLOUDY    15  10  80 CALM      30.18R
DICKINSON      CLEAR     11   7  84 W13       30.12R WCI  -4
HETTINGER      CLOUDY    13   8  81 W13       30.17R WCI  -2
$$

 *****  OTHER OBSERVATIONS NORTHEAST NORTH DAKOTA  *****

CITY           SKY/WX    TMP DP  RH WIND       PRES   REMARKS
WALHALLA         N/A      7   1  78 W10       30.11R WCI  -8
LANGDON        NOT AVBL
CAVALIER       CLOUDY     5   0  78 W7        30.11S WCI  -7
GRAFTON        NOT AVBL
CANDO          FAIR      -2  -6  84 W9        30.10S WCI -18
FORT TOTTEN      N/A      5   0  78 W6        29.95  WCI  -6
ROLLA          FLURRIES   5   0  78 NW9       30.06S WCI  -9
RUGBY          FAIR      -2  -6  84 W10       30.10S WCI -19
 ***** THE ABOVE OBSERVATIONS ARE NON NWS ARE NOT QUALITY
        CONTROLLED AND MAY MIS-REPORT RAIN FOR SNOW...
$$

 *****  OTHER OBSERVATIONS SOUTHEAST NORTH DAKOTA *****

CITY           SKY/WX    TMP DP  RH WIND       PRES   REMARKS
COOPERSTOWN    NOT AVBL
VALLEY CITY    CLOUDY     5   0  78 W13       30.15S WCI -12
OAKES            N/A      0  -2  92 S8        30.20S WCI -15
GWINNER        SUNNY      5   0  78 SW12      30.20F WCI -11
BUFFALO        NOT AVBL
WYNDMERE         N/A      1  -2  85 SW9         N/A  WCI -14
 ***** THE ABOVE OBSERVATIONS ARE NON NWS ARE NOT QUALITY
       CONTROLLED AND MAY MIS-REPORT RAIN FOR SNOW...
$$

  *****  WEATHER ACROSS NORTHERN MINNESOTA  *****

CITY           SKY/WX    TMP DP  RH WIND       PRES   REMARKS
FLAG ISLAND    CLEAR     -4  -8  84 SW6       30.05S WCI -16
WARROAD        CLEAR     -2  -8  78 SW8       30.07F WCI -17
ROSEAU         CLEAR     -2  -8  78 SW9       30.08S WCI -18
HALLOCK        NOT AVBL
THF RVR FALLS  PTCLDY    -2 -11  65 SW7       30.11F WCI -16
HALSTAD        NOT AVBL
FOSSTON        PTCLDY    -8 -11  84 SW8       30.13S WCI -23
BAUDETTE       CLEAR     -5  -9  83 SW5       30.06S WCI -16
WASKISH        CLEAR      1  -2  85 SW8       30.10R WCI -12
CROOKSTON      PTCLDY    -2  -8  78 S7        30.16S WCI -16
$$
  *****  WEATHER ACROSS CENTRAL AND WEST MINNESOTA  *****

CITY           SKY/WX    TMP DP  RH WIND       PRES   REMARKS
BEMIDJI        CLEAR     -1  -4  86 SW5       30.11S WCI -11
PARK RAPIDS    FAIR      -5  -9  83 W9        30.13S WCI -22
WADENA         CLEAR     -2  -6  84 W7        30.17R WCI -16
DETROIT LAKES  PTCLDY     1  -2  85 SW6       30.16F WCI -10
MOORHEAD       PTCLDY    -2  -6  84 S3        30.21S
FERGUS FALLS   PTCLDY    -2  -6  84 CALM      30.25S
ELBOW LAKE     FAIR      -2  -4  88 SW7       30.21S WCI -15
MORRIS MN      FAIR       1  -2  85 W5        30.23S WCI  -8
STAPLES        PTCLDY    -2  -6  84 W6        30.16F WCI -14
WHEATON        NOT AVBL
$$
  *****  WEATHER ELSEWHERE ACROSS MINNESOTA  *****

CITY           SKY/WX    TMP DP  RH WIND       PRES   REMARKS
DULUTH         LGT SNOW  12   7  80 SW12      30.09S WCI  -2
INTRNTL FALLS  CLEAR     -2  -5  87 SW6       30.07R WCI -14
ELY            NOT AVBL
CLOQUET        FLURRIES  12   7  79 SW8       30.12R WCI   1
BRAINERD       PTCLDY     6   1  80 W7        30.16S WCI  -6
HIBBING        CLOUDY    13   7  77 W7        30.07S WCI   3
ALEXANDRIA     CLEAR      2  -2  83 W10       30.19S WCI -14
SAINT CLOUD    CLEAR     10   3  73 NW13      30.20R WCI  -5
MINNEAPOLIS    CLOUDY    16  10  77 SW9       30.23F WCI   4
$$

  *****  WEATHER ACROSS SOUTH DAKOTA  *****

CITY           SKY/WX    TMP DP  RH WIND       PRES   REMARKS
SIOUX FALLS    MOCLDY    12   8  84 W3        30.29R
BROOKINGS      NOT AVBL
WATERTOWN      PTCLDY     4  -1  80 W8        30.22S WCI  -9
HURON          MOCLDY    10   4  76 SW5       30.29S WCI   2
SISSETON         N/A      8   2  76 W13       30.23S WCI  -8
ABERDEEN       CLEAR      0  -5  79 SW8       30.25S WCI -14
MITCHELL       CLOUDY    15   9  76 SW6       30.32R WCI   6
PIERRE         PTCLDY    13   6  74 W9        30.27R WCI   1
MOBRIDGE       CLEAR      4  -1  80 CALM      30.19S
RAPID CITY     CLEAR      7   5  91 CALM      30.22S
$$

  *****  SOME WEATHER IN NEARBY STATES *****

CITY           SKY/WX    TMP DP  RH WIND       PRES   REMARKS
GLASGOW MT     CLOUDY    15  11  83 NW8       30.22R WCI   4
GREAT FALLS MT CLEAR     12   7  80 S9        30.24S WCI   0
CHEYENNE WY    CLOUDY    10   7  87 NE5       30.08R FOG     WCI   2
SCOTTSBLUFF NE MOCLDY    15   9  76 CALM      30.21R
OMAHA NE       PTCLDY    20  14  77 SW3       30.35S
DES MOINES IA  FLURRIES  22  15  75 SW6       30.34F WCI  14
DAVENPORT IA   FOG       13   9  84 NW3       30.37S VSB 3/4
CHICAGO IL     CLOUDY    17  14  88 CALM      30.35F FOG
EAU CLAIRE WI  CLOUDY    13   8  81 S9        30.23F WCI   1
LA CROSSE WI   CLOUDY    12   7  80 S7        30.31F WCI   1
$$

  *****  SOME NATIONAL WEATHER *****

CITY           SKY/WX    TMP DP  RH WIND       PRES   REMARKS
LA GUARDIA NY  PTSUNNY   26  16  65 NE8       30.66F WCI  18
RALEIGH NC     FRZ RAIN  30  27  86 NE10      30.60S FOG     WCI  21
ATLANTA GA     LGT RAIN  36  34  92 E13       30.49R FOG
NEW ORLEANS LA DRZL/FOG  56  55  97 E9        30.31R VSB 1/4
OKLAHOMA CITY  FRZ DRZL  29  26  89 N5        30.32R FOG     WCI  24
ALBUQUERQUE NM MOCLDY    34  32  92 SE5       30.07R
SALT LAKE CITY MOCLDY    33  30  88 CALM      30.03R
LOS ANGELES CA MOCLDY    52  47  83 E9        29.91F
BOISE ID       FLURRIES  31  23  72 SE3       30.15R
SEATTLE WA     CLEAR     36  29  75 CALM      30.23S
$$

*** WEATHER ACROSS MANITOBA...SASKATCHEWAN AND ONTARIO ***
                ***ONTARIO***

CITY           SKY/WX    TMP DP  RH WIND       PRES   REMARKS
GERALDTON      PTCLDY     9   5  85 SW10      29.97F WCI  -6
THUNDER BAY    PTCLDY     7   3  85 SW5       30.09F WCI  -2
SIOUX LOOKOUT  LGT SNOW  12   9  85 NW10      29.95R WCI  -1
TORONTO        FLURRIES  16   9  73 W7        30.43F WCI   6
BIG TROUT LK   LGT SNOW   7   3  85 W10       29.80R WCI  -8
PICKLE LAKE    LGT SNOW  12   7  79 W13G21    29.85S DRFTSNOWWCI  -3
DRYDEN         PTCLDY     5   3  92 W12       29.98R WCI -11
KENORA         CLEAR     -4  -8  84 SW8       30.01R WCI -19
$$
                *** MANITOBA***

CITY           SKY/WX    TMP DP  RH WIND       PRES   REMARKS
BRANDON        CRYSTALS  -4  -8  84 NW13      30.09R WCI -23
DAUPHIN        CLOUDY     9   3  78 W9        30.11R WCI  -5
ISLAND LAKE    FLURRIES   3  -2  78 W9        29.93R WCI -11
PILOT MOUND      N/A      1   0  92 W8          N/A  WCI -12
THE PAS        PTCLDY     1  -4  78 N6        30.11R WCI -10
THOMPSON       CLEAR    -11 -17  77 W7        30.00S WCI -26
WINNIPEG       PTCLDY    -2  -8  78 W9        30.09R WCI -18
LYNN LAKE      CLEAR    -13 -17  84 W7        30.02R WCI -29
CHURCHILL      CRYSTALS -17 -24  70 NW24      29.90S WCI -46
GILLAM         MOCLDY   -13 -18  77 W12       29.94S WCI -33
$$
                ***SASKATCHEWAN***

CITY           SKY/WX    TMP DP  RH WIND       PRES   REMARKS
ESTEVAN        CLEAR      0  -4  85 NW12      30.15R WCI -18
KINDERSLEY     PTCLDY     1   0  92 SW5       30.21S WCI  -8
LLOYDMINSTER   CLEAR      3   1  92 W8        30.17S WCI -10
PRINCE ALBERT  PTCLDY     1  -2  85 W7        30.18R WCI -11
REGINA         FLURRIES   7   3  85 W8        30.18R WCI  -6
YORKTON        FLURRIES   3   0  85 W8        30.12R WCI -10



USA.gov is the U.S. government's official web portal to all federal, state and local government web resources and services.